Frederick, MD

10:13 AM EDT on May 23, 2017 (GMT -0400)
Frederick Municipal

Weather History for KFDK - November, 2012

Change the Weather History Date:

Friday, November 16, 2012

  Actual Average (KHGR) Record (KHGR)
Temperature  
Mean Temperature 40 °F -  
Max Temperature 53 °F 50 °F 71 °F (2001)
Min Temperature 28 °F 34 °F 21 °F (1996)
Degree Days  
Heating Degree Days 24    
Moisture  
Dew Point 32 °F    
Average Humidity 90    
Maximum Humidity 100    
Minimum Humidity 47    
Precipitation  
Precipitation 0.00 in - - ()
Sea Level Pressure  
Sea Level Pressure 30.39 in    
Wind  
Wind Speed 1 mph (NNE)    
Max Wind Speed 9 mph    
Max Gust Speed -    
Visibility 8 miles    
Events      
Averages and records for this station are not official NWS values.
T = Trace of Precipitation, MM = Missing Value Source: NWS Daily Summary

Daily Weather History Graph

Daily Weather History Graph

Search for Another Location

Airport or City:

Trip Planner

Search our weather history database for the weather conditions in past years. The results will help you decide how hot, cold, wet, or windy it might be!

Date:

Astronomy

Nov. 16, 2012 Rise Set
Actual Time 6:54 AM EST 4:53 PM EST
Civil Twilight 6:26 AM EST 5:22 PM EST
Nautical Twilight 5:53 AM EST 5:54 PM EST
Astronomical Twilight 5:21 AM EST 6:26 PM EST
Moon 9:47 AM EST (11/16) 7:50 PM EST (11/16)
Length of Visible Light 10h 56m
Length of Day
9h 58m
Waxing Crescent, 11% of the Moon is Illuminated
Nov 16
Waxing Crescent
Nov 20
First Quarter
Nov 28
Full
Dec 6
Last Quarter
Dec 13
New

Hourly Weather History & Observations

Time (EST) Temp. Windchill Dew Point Humidity Pressure Visibility Wind Dir Wind Speed Gust Speed Precip Events Conditions
12:20 AM 32.0 °F - 32.0 °F 100% 30.35 in 7.0 mi Calm Calm - N/A   Clear
12:40 AM 32.0 °F - 32.0 °F 100% 30.34 in 7.0 mi Calm Calm - N/A   Clear
1:00 AM 32.0 °F - 32.0 °F 100% 30.34 in 7.0 mi Calm Calm - N/A   Clear
1:20 AM 32.0 °F - 32.0 °F 100% 30.34 in 7.0 mi Calm Calm - N/A   Clear
1:45 AM 32.0 °F - 32.0 °F 100% 30.34 in 5.0 mi Calm Calm - N/A   Clear
2:05 AM 32.0 °F - 32.0 °F 100% 30.35 in 5.0 mi Calm Calm - N/A   Clear
2:25 AM 32.0 °F - 32.0 °F 100% 30.34 in 5.0 mi Calm Calm - N/A   Clear
2:45 AM 32.0 °F - 32.0 °F 100% 30.34 in 4.0 mi Calm Calm - N/A   Clear
3:10 AM 32.0 °F - 32.0 °F 100% 30.34 in 5.0 mi Calm Calm - N/A   Clear
3:30 AM 32.0 °F - 32.0 °F 100% 30.34 in 5.0 mi Calm Calm - N/A   Clear
3:50 AM 32.0 °F - 32.0 °F 100% 30.33 in 5.0 mi Calm Calm - N/A   Clear
4:10 AM 32.0 °F - 32.0 °F 100% 30.34 in 7.0 mi Calm Calm - N/A   Clear
4:35 AM 32.0 °F - 32.0 °F 100% 30.34 in 5.0 mi Calm Calm - N/A   Clear
4:55 AM 32.0 °F - 32.0 °F 100% 30.34 in 7.0 mi Calm Calm - N/A   Clear
5:15 AM 32.0 °F - 32.0 °F 100% 30.35 in 5.0 mi Calm Calm - N/A   Clear
5:35 AM 32.0 °F - 32.0 °F 100% 30.35 in 4.0 mi Calm Calm - N/A   Clear
5:50 AM 32.0 °F - 32.0 °F 100% 30.35 in 5.0 mi Calm Calm - N/A   Clear
6:45 AM 33.8 °F - 33.8 °F 100% 30.36 in 7.0 mi Calm Calm - N/A   Clear
7:50 AM 33.8 °F - 33.8 °F 100% 30.36 in 7.0 mi Calm Calm - N/A   Clear
8:51 AM 33.8 °F - 33.8 °F 100% 30.39 in 7.0 mi Calm Calm - N/A   Clear
9:50 AM 46.4 °F - 37.4 °F 71% 30.40 in 10.0 mi Calm Calm - N/A   Clear
10:50 AM 48.2 °F - 35.6 °F 62% 30.40 in 10.0 mi Variable 3.5 mph - N/A   Clear
11:55 AM 51.8 °F - 33.8 °F 50% 30.38 in 10.0 mi NNE 6.9 mph - N/A   Clear
12:45 PM 53.6 °F - 33.8 °F 47% 30.36 in 10.0 mi ENE 9.2 mph - N/A   Clear
1:50 PM 53.6 °F - 33.8 °F 47% 30.35 in 10.0 mi ENE 4.6 mph - N/A   Clear
2:49 PM 53.6 °F - 33.8 °F 47% 30.35 in 10.0 mi NNE 5.8 mph - N/A   Clear
3:51 PM 53.6 °F - 33.8 °F 47% 30.36 in 10.0 mi NNE 5.8 mph - N/A   Clear
4:49 PM 46.4 °F 44.3 °F 32.0 °F 57% 30.38 in 10.0 mi North 4.6 mph - N/A   Clear
5:45 PM 39.2 °F - 30.2 °F 70% 30.40 in 10.0 mi Calm Calm - N/A   Clear
6:54 PM 33.8 °F - 32.0 °F 93% 30.43 in 10.0 mi Calm Calm - N/A   Clear
7:45 PM 32.0 °F - 30.2 °F 93% 30.44 in 10.0 mi Calm Calm - N/A   Clear
8:10 PM 32.0 °F - 32.0 °F 100% 30.45 in 10.0 mi Calm Calm - N/A   Clear
8:30 PM 32.0 °F - 32.0 °F 100% 30.45 in 10.0 mi Calm Calm - N/A   Clear
8:50 PM 30.2 °F - 30.2 °F 100% 30.46 in 10.0 mi Calm Calm - N/A   Clear
9:10 PM 32.0 °F - 32.0 °F 100% 30.46 in 10.0 mi Calm Calm - N/A   Clear
9:35 PM 32.0 °F - 32.0 °F 100% 30.47 in 10.0 mi Calm Calm - N/A   Clear
9:55 PM 30.2 °F - 30.2 °F 100% 30.48 in 10.0 mi Calm Calm - N/A   Clear
10:15 PM 30.2 °F - 30.2 °F 100% 30.48 in 10.0 mi Calm Calm - N/A   Clear
10:35 PM 30.2 °F - 30.2 °F 100% 30.48 in 10.0 mi Calm Calm - N/A   Clear
11:00 PM 28.4 °F - 28.4 °F 100% 30.48 in 10.0 mi Calm Calm - N/A   Clear
11:20 PM 30.2 °F - 30.2 °F 100% 30.48 in 7.0 mi Calm Calm - N/A   Clear
11:40 PM 30.2 °F - 30.2 °F 100% 30.48 in 10.0 mi Calm Calm - N/A   Clear